DB0GMN-13 Weather Reports


time (UTC)temp
C
wind
direction
speed
KPH
gust
KPH
rain 1hr
cm
rain 24hr
cm
rain mn
cm
humidity
%
barometer
mb
20260507095628 -17 9 3.2 12.9 0.00 0.00 0.00 99 1014.9
20260507094604 -17 8 4.8 17.7 0.00 0.00 0.00 69 1014.6
20260507093601 -17 74 4.8 14.5 0.00 0.00 0.00 69 1014.6
20260507092558 -17 22 9.7 20.9 0.00 0.00 0.00 84 1014.5
20260507091554 -17 100 3.2 14.5 0.00 0.00 0.00 59 1014.5
20260507090552 -17 346 4.8 12.9 0.00 0.00 0.00 39 1014.4
20260507085546 -17 93 11.3 20.9 0.00 0.00 0.00 99 1014.3
20260507084542 -17 52 4.8 17.7 0.00 0.00 0.00 89 1014.3
20260507083539 -17 57 12.9 22.5 0.00 0.00 0.00 68 1014.1
20260507082535 -17 75 8.0 17.7 0.00 0.00 0.00 1014.1
20260507081531 -17 27 19.3 29.0 0.00 0.00 0.00 1014.0
20260507080528 -17 41 14.5 27.4 0.00 0.00 0.00 1013.9
20260507075525 -1 28 14.5 22.5 0.00 0.00 0.00 93 1013.8
20260507074541 -1 45 14.5 24.1 0.00 0.00 0.00 93 1013.9
20260507073518 -1 25 11.3 20.9 0.00 0.00 0.00 98 1014.0
20260507072613 -1 46 11.3 17.7 0.00 0.00 0.00 96 1013.9
20260507071608 -1 40 11.3 17.7 0.00 0.00 0.00 96 1013.8
20260507070605 -1 40 6.4 14.5 0.00 0.00 0.00 97 1013.6
20260507065602 -1 37 20.9 27.4 0.00 0.00 0.00 93 1013.6
20260507064558 -1 26 16.1 24.1 0.00 0.00 0.00 93 1013.5
20260507063614 -1 42 16.1 22.5 0.00 0.00 0.00 97 1013.5
20260507062611 -1 39 16.1 22.5 0.00 0.00 0.00 99 1013.4
20260507061545 -1 34 16.1 24.1 0.00 0.00 0.00 99 1013.1
20260507060541 -1 68 12.9 17.7 0.00 0.00 0.00 99 1013.2
20260507055536 -1 59 14.5 22.5 0.00 0.00 0.00 99 1013.1
20260507054532 -1 66 9.7 17.7 0.00 0.00 0.00 99 1013.1
20260507053528 -1 30 14.5 20.9 0.00 0.00 0.00 99 1012.9
20260507052526 -1 56 9.7 17.7 0.00 0.00 0.00 99 1012.8
20260507051522 -1 58 9.7 17.7 0.00 0.00 0.00 99 1012.7
20260507050517 -1 54 6.4 14.5 0.00 0.00 0.00 99 1012.6
20260507045614 -1 40 8.0 12.9 0.00 0.00 0.00 99 1012.5
20260507044629 -1 78 8.0 14.5 0.00 0.00 0.00 98 1012.6
20260507043606 -1 48 11.3 17.7 0.00 0.00 0.00 96 1012.4
20260507042603 -1 30 8.0 12.9 0.00 0.00 0.00 98 1012.3
20260507041600 -1 38 11.3 17.7 0.00 0.00 0.00 93 1012.4
20260507040556 -1 34 16.1 22.5 0.00 0.00 0.00 95 1012.2
20260507035553 -1 40 14.5 20.9 0.00 0.00 0.00 98 1012.2
20260507034549 -1 42 16.1 24.1 0.00 0.00 0.00 95 1011.9
20260507033545 -1 30 17.7 25.7 0.00 0.00 0.00 95 1011.9
20260507032601 -1 45 16.1 20.9 0.00 0.00 0.00 94 1012.0
20260507031537 -1 46 14.5 17.7 0.00 0.00 0.00 95 1011.9
20260507030533 -1 51 8.0 12.9 0.00 0.00 0.00 94 1012.1
20260507025530 -1 39 9.7 17.7 0.00 0.00 0.00 95 1012.0
20260507024526 -1 33 12.9 17.7 0.00 0.00 0.00 95 1011.9
20260507023522 -1 37 16.1 24.1 0.00 0.00 0.00 97 1011.8
20260507022517 -1 37 16.1 22.5 0.00 0.00 0.00 99 1011.7
20260507021634 -1 44 14.5 20.9 0.00 0.00 0.00 99 1011.7
20260507020610 -1 40 9.7 17.7 0.00 0.00 0.00 99 1011.6
20260507015604 -1 43 12.9 20.9 0.00 0.00 0.00 99 1011.6
20260507014622 -1 41 14.5 20.9 0.00 0.00 0.00 99 1011.5
20260507013557 -1 42 12.9 22.5 0.00 0.00 0.00 99 1011.4
20260507012553 -1 38 16.1 24.1 0.00 0.00 0.00 99 1011.2
20260507011551 -1 38 14.5 22.5 0.00 0.00 0.00 99 1011.3
20260507010546 -1 70 11.3 17.7 0.00 0.00 0.00 99 1011.1
20260507005541 -1 64 14.5 17.7 0.00 0.00 0.00 99 1011.1
20260507004537 -1 41 16.1 22.5 0.00 0.00 0.00 99 1011.1
20260507003533 -1 30 16.1 20.9 0.00 0.00 0.00 97 1011.0
20260507002551 -1 33 17.7 24.1 0.00 0.00 0.00 94 1011.0
20260507001527 -1 38 12.9 20.9 0.00 0.00 0.00 93 1011.0
20260507000524 -1 45 14.5 20.9 0.00 0.00 0.00 99 1011.0
20260506235520 -1 41 14.5 22.5 0.00 0.00 0.00 96 1011.1
20260506234517 -1 55 17.7 25.7 0.00 0.00 0.00 94 1010.8
20260506233612 -1 36 12.9 24.1 0.00 0.00 0.00 96 1010.8
20260506232608 -1 34 14.5 22.5 0.00 0.00 0.00 95 1010.8
20260506231603 -1 52 14.5 22.5 0.00 0.00 0.00 93 1010.8
20260506230600 -1 34 17.7 24.1 0.00 0.00 0.00 98 1010.9
20260506225557 -1 34 17.7 22.5 0.00 0.00 0.00 99 1010.7
20260506224553 -1 56 14.5 22.5 0.00 0.00 0.00 97 1010.5
20260506223609 -1 27 14.5 22.5 0.00 0.00 0.00 96 1010.6
20260506222544 -1 33 16.1 20.9 0.00 0.00 0.00 93 1010.5
20260506221540 -1 45 12.9 17.7 0.00 0.00 0.00 97 1010.6
20260506220556 -1 50 11.3 17.7 0.00 0.00 0.00 95 1010.6
20260506215532 -1 49 9.7 20.9 0.00 0.00 0.00 99 1010.5
20260506214527 -1 60 4.8 9.7 0.00 0.00 0.00 99 1010.4
20260506213523 -1 168 8.0 12.9 0.00 0.00 0.00 99 1010.4
20260506212521 -1 115 8.0 12.9 0.00 0.00 0.00 99 1010.3
20260506211517 -1 7 8.0 22.5 0.00 0.00 0.00 99 1010.2
20260506210633 -1 151 8.0 20.9 0.00 0.00 0.00 99 1009.9
20260506205629 -1 51 9.7 29.0 0.00 0.00 0.00 99 1010.2
20260506204605 -1 71 9.7 22.5 0.00 0.00 0.00 96 1010.2
20260506203600 -1 15 8.0 17.7 0.00 0.00 0.00 93 1010.2
20260506202557 -1 306 6.4 14.5 0.00 0.00 0.00 93 1010.1
20260506201554 -1 108 9.7 20.9 0.00 0.00 0.00 93 1010.0
20260506200610 -1 116 8.0 14.5 0.00 0.00 0.00 93 1010.0
20260506195547 -1 129 4.8 11.3 0.00 0.00 0.00 93 1010.0
20260506194545 -1 85 4.8 14.5 0.00 0.00 0.00 93 1009.9
20260506193539 -1 103 4.8 12.9 0.00 0.00 0.00 93 1009.9
20260506192535 -1 78 3.2 11.3 0.00 0.00 0.00 95 1010.1
20260506191531 -1 38 4.8 14.5 0.00 0.00 0.00 96 1010.0
20260506190528 -1 127 4.8 12.9 0.00 0.00 0.00 95 1009.9
20260506185524 -1 33 6.4 17.7 0.00 0.00 0.00 93 1009.8
20260506184521 -1 39 9.7 27.4 0.00 0.00 0.00 93 1009.7
20260506183516 -1 82 6.4 17.7 0.00 0.00 0.00 93 1009.8
20260506182612 -1 116 4.8 17.7 0.00 0.00 0.00 93 1009.5
20260506181607 -1 316 8.0 17.7 0.00 0.00 0.00 93 1009.4
20260506180603 -1 0 6.4 12.9 0.00 0.00 0.00 93 1009.2
20260506175559 -1 75 4.8 12.9 0.00 0.00 0.00 93 1009.3
20260506174554 -1 75 6.4 14.5 0.00 0.00 0.00 93 1009.2
20260506173552 -1 91 4.8 17.7 0.00 0.00 0.00 96 1009.1
20260506172548 -1 94 8.0 17.7 0.00 0.00 0.00 96 1008.9
20260506171545 -1 342 4.8 12.9 0.00 0.00 0.00 96 1009.0
20260506170540 -1 219 8.0 24.1 0.00 0.00 0.00 94 1008.7
20260506165535 -1 55 6.4 22.5 0.00 0.00 0.00 93 1008.7
20260506164531 -1 11 12.9 32.2 0.00 0.00 0.00 96 1008.7
20260506163529 -1 63 16.1 29.0 0.00 0.00 0.00 95 1008.5
20260506162524 -1 106 12.9 24.1 0.00 0.00 0.00 97 1008.4
20260506161521 -1 264 11.3 25.7 0.00 0.00 0.00 95 1008.3
20260506160518 -1 11 12.9 27.4 0.00 0.00 0.00 95 1008.3
20260506155515 -1 96 9.7 20.9 0.00 0.00 0.00 93 1008.4
20260506154611 -1 25 12.9 22.5 0.00 0.00 0.00 95 1008.3
20260506153607 -1 69 9.7 22.5 0.00 0.00 0.00 99 1008.3
20260506152603 -1 137 6.4 12.9 0.00 0.00 0.00 99 1008.4
20260506151558 -1 118 9.7 24.1 0.00 0.00 0.00 99 1008.3
20260506150555 -1 58 4.8 12.9 0.00 0.00 0.00 93 1008.3
20260506145552 -1 62 6.4 17.7 0.00 0.00 0.00 93 1008.2
20260506144548 -17 32 6.4 14.5 0.00 0.00 0.00 1008.1
20260506143544 -17 242 9.7 17.7 0.00 0.00 0.00 1008.2
20260506142600 -17 45 4.8 14.5 0.00 0.00 0.00 1008.3
20260506141535 -17 104 6.4 17.7 0.00 0.00 0.00 1008.4
20260506140530 -17 111 4.8 20.9 0.00 0.00 0.00 99 1008.2
20260506135526 -10 143 6.4 14.5 0.00 0.00 0.00 99 1008.2
20260506134522 -17 93 6.4 20.9 0.00 0.00 0.00 1008.3
20260506133519 -17 127 8.0 22.5 0.00 0.00 0.00 99 1008.1
20260506132515 -10 90 6.4 14.5 0.00 0.00 0.00 1007.9
20260506131612 -17 125 11.3 22.5 0.00 0.00 0.00 1007.9
20260506130628 -17 39 6.4 17.7 0.00 0.03 0.00 1007.8
20260506125603 -17 78 6.4 14.5 0.00 0.03 0.00 1007.7
20260506124559 -17 309 6.4 12.9 0.00 0.03 0.00 1007.7
20260506123616 -17 33 6.4 12.9 0.00 0.03 0.00 1007.7
20260506122553 -17 6 9.7 25.7 0.00 0.03 0.00 1007.6
20260506121551 -17 129 16.1 32.2 0.00 0.05 0.00 99 1007.5
20260506120546 -17 60 11.3 17.7 0.00 0.05 0.00 99 1007.4
20260506115543 -17 129 9.7 20.9 0.00 0.10 0.00 76 1007.3
20260506114539 -17 30 14.5 24.1 0.00 0.10 0.00 99 1007.2
20260506113535 -17 98 8.0 17.7 0.00 0.10 0.00 76 1007.3
20260506112530 -17 7 14.5 25.7 0.00 0.13 0.00 99 1007.3
20260506111547 -17 118 12.9 27.4 0.00 0.13 0.00 90 1007.3
20260506110523 -17 19 16.1 33.8 0.00 0.13 0.00 99 1007.2
20260506105540 -17 89 14.5 25.7 0.00 0.15 0.00 99 1007.1
20260506104516 -17 48 12.9 25.7 0.00 0.15 0.00 99 1007.2
20260506103612 -17 95 11.3 20.9 0.00 0.15 0.00 99 1007.2
20260506102607 -17 34 12.9 25.7 0.00 0.15 0.00 88 1007.1
20260506101623 -17 63 17.7 27.4 0.00 0.18 0.00 1007.2